EW6511 Weather Reports


Display with metric or nautical units.
time (UTC)temp
F
wind
direction
speed
MPH
gust
MPH
rain 1hr
in
rain 24hr
in
rain mn
in
humidity
%
barometer
mb
20260505050706 48 237 0.0 0.0 0.00 0.10 0.01 85 1012.4
20260505041703 48 155 0.0 1.0 0.00 0.10 0.01 85 1012.4
20260505035703 48 233 0.0 0.0 0.01 0.10 0.01 85 1012.2
20260505034702 48 232 0.0 1.0 0.01 0.10 0.01 85 1012.3
20260505033657 48 218 0.0 3.0 0.01 0.10 0.01 85 1012.5
20260505032657 48 218 0.0 3.0 0.01 0.10 0.01 85 1012.5
20260505031657 48 183 0.0 1.0 0.01 0.10 0.01 85 1012.6
20260505025656 48 232 0.0 2.0 0.00 0.09 0.00 85 1012.6
20260505024657 48 232 1.0 4.0 0.00 0.09 0.00 85 1012.6
20260505023657 48 239 0.0 2.0 0.00 0.09 0.00 85 1012.9
20260505022656 48 239 1.0 3.0 0.00 0.09 0.00 85 1012.9
20260505021659 47 253 1.0 3.0 0.00 0.09 0.00 85 1012.9
20260505020651 48 54 0.0 2.0 0.00 0.09 0.00 85 1012.9
20260505015651 48 54 0.0 0.0 0.00 0.09 0.00 85 1012.9
20260505014650 48 54 0.0 0.0 0.00 0.09 0.00 85 1012.9
20260505013650 48 54 0.0 1.0 0.00 0.09 0.00 85 1012.9
20260505012650 48 53 0.0 0.0 0.00 0.09 0.00 85 1012.9
20260505010652 47 53 0.0 0.0 0.00 0.09 0.00 84 1013.0
20260505005652 48 53 0.0 0.0 0.00 0.09 0.00 84 1013.0
20260505004652 48 53 0.0 0.0 0.00 0.09 0.00 85 1013.2
20260505003645 47 53 0.0 0.0 0.00 0.09 0.00 84 1013.4
20260505002644 47 53 0.0 1.0 0.00 0.09 0.00 84 1013.6
20260505001645 47 53 1.0 2.0 0.00 0.09 0.00 84 1013.7
20260505000643 47 53 0.0 0.0 0.00 0.09 0.00 84 1013.8
20260504235644 47 53 0.0 0.0 0.00 0.09 0.00 84 1013.9
20260504233645 47 53 0.0 1.0 0.00 0.09 0.00 84 1014.1
20260504232644 47 53 0.0 0.0 0.00 0.09 0.00 84 1014.0
20260504230639 47 53 0.0 2.0 0.00 0.09 0.00 84 1014.4
20260504225638 47 53 0.0 2.0 0.00 0.09 0.00 84 1014.5
20260504222636 47 53 0.0 3.0 0.00 0.09 0.00 84 1014.7
20260504221636 48 53 0.0 0.0 0.00 0.09 0.00 84 1014.8
20260504220637 48 53 0.0 0.0 0.00 0.09 0.00 84 1014.7
20260504215634 47 53 0.0 0.0 0.00 0.09 0.09 83 1014.7
20260504214636 48 53 0.0 0.0 0.00 0.09 0.09 83 1014.8
20260504212632 48 53 0.0 0.0 0.00 0.09 0.09 83 1014.9
20260504211629 48 53 1.0 3.0 0.00 0.09 0.09 83 1015.0
20260504205627 49 53 0.0 0.0 0.00 0.09 0.09 83 1015.2
20260504204629 50 53 1.0 2.0 0.00 0.09 0.09 83 1015.1
20260504203622 50 53 1.0 3.0 0.00 0.09 0.09 82 1015.3
20260504202622 50 53 3.0 3.0 0.00 0.09 0.09 82 1015.3
20260504201622 51 46 2.0 3.0 0.00 0.09 0.09 81 1015.4
20260504200622 51 43 1.0 2.0 0.00 0.09 0.09 80 1015.6
20260504195623 51 43 1.0 3.0 0.00 0.09 0.09 80 1015.5
20260504194623 51 119 0.0 3.0 0.00 0.09 0.09 80 1015.4
20260504193621 51 121 2.0 4.0 0.00 0.09 0.09 80 1015.4
20260504192623 51 121 3.0 4.0 0.00 0.09 0.09 80 1015.3
20260504191622 51 185 2.0 3.0 0.00 0.09 0.09 80 1015.3
20260504190618 52 185 0.0 2.0 0.00 0.09 0.09 80 1015.4
20260504185618 52 185 0.0 1.0 0.00 0.09 0.09 80 1015.4
20260504184619 52 185 0.0 1.0 0.00 0.09 0.09 79 1015.4
20260504183615 52 185 1.0 2.0 0.00 0.09 0.09 79 1015.4
20260504182613 52 186 2.0 4.0 0.00 0.09 0.09 79 1015.4
20260504181613 52 248 1.0 3.0 0.00 0.09 0.09 80 1015.6
20260504180613 52 248 2.0 3.0 0.00 0.09 0.09 80 1015.5
20260504175615 52 248 1.0 3.0 0.00 0.09 0.09 80 1015.6
20260504172609 52 238 2.0 4.0 0.00 0.09 0.09 79 1015.8
20260504170607 52 255 3.0 6.0 0.00 0.09 0.09 79 1016.0
20260504150608 53 284 9.0 15.0 0.06 0.09 0.09 76 1016.7
20260504140614 55 258 11.0 18.0 0.02 0.02 0.02 68 1016.7
20260504130603 59 279 11.0 15.0 0.00 0.01 0.00 55 1016.1
20260504110558 61 328 7.0 11.0 0.00 0.01 0.00 53 1015.5
20260504100556 62 45 5.0 10.0 0.00 0.01 0.00 54 1015.6
20260504081558 58 40 8.0 12.0 0.00 0.01 0.00 59 1016.0
20260504080557 58 48 7.0 12.0 0.00 0.01 0.00 57 1016.2